Flag for Germany Weather past 2 weeks in Dortmund, North Rhine-Westphalia, Germany

Now
37 °F

Light rain. Passing clouds.


Feels Like: 27 °F
Forecast: 34 / 39 °F
Wind: 22 mph from Northwest

Location: Dortmund / Wickede

Current Time: Jan 28, 2015 at 8:04:09 PM

Latest Report: Jan 28, 2015 at 7:20 PM


Visibility: N/A

Pressure: 29.42 "Hg

Humidity: 81%

Dew point: 32 °F

Location of DortmundLocation

Historic Weather in Dortmund — Graph

°F

Dortmund temperature yesterday

Maximum temperature yesterday: 41 °F (at 2:20 PM)
Minimum temperature yesterday: 36 °F (at 5:20 AM)
Average temperature yesterday: 38 °F

Past Weeks' High & Low Weather Summary

 TemperatureHumidityPressure
High50 °F (Jan 15, 12:50 PM)93% (Jan 17, 7:20 AM)30.39 "Hg (Jan 17, 7:20 AM)
Low27 °F (Jan 21, 8:20 AM)60% (Jan 21, 12:20 PM)29.36 "Hg (Jan 28, 5:50 PM)
Average36 °F81%29.95 "Hg
* Reported Jan 13 6:20 PM — Jan 28 6:50 PM, Dortmund, Weather by CustomWeather, © 2014

Note: Actual official high and low records may vary slightly from our data, if they occured in-between our weather recording intervals... More about our weather records

Advertising

Dortmund weather history for previous 24 hours

 ConditionsComfort  
Time TempWeatherWind HumidityBarometerVisibility
6:50 PM
Jan 28
41 °FThundershowers. Passing clouds.23 mph81%29.36 "Hg3 mi
6:20 PM39 °FLight rain. Passing clouds.22 mph87%29.36 "HgN/A
5:50 PM39 °FLight rain. Partly cloudy.25 mph87%29.36 "HgN/A
5:20 PM39 °FLight rain. Passing clouds.25 mph81%29.39 "Hg4 mi
4:50 PM39 °FLight rain. Partly sunny.25 mph81%29.42 "Hg4 mi
4:20 PM39 °FLight rain. Broken clouds.24 mph81%29.42 "Hg4 mi
3:50 PM41 °FPartly sunny.28 mph76%29.45 "HgN/A
3:20 PM41 °FPartly sunny.26 mph70%29.47 "HgN/A
2:50 PM41 °FScattered clouds.25 mph70%29.50 "HgN/A
2:20 PM41 °FScattered clouds.25 mph76%29.56 "HgN/A
1:50 PM43 °FScattered clouds.25 mph71%29.59 "HgN/A
1:20 PM41 °FScattered clouds.24 mph76%29.65 "HgN/A
12:50 PM41 °FScattered clouds.22 mph76%29.68 "HgN/A
12:20 PM41 °FDrizzle. Partly sunny.21 mph76%29.71 "HgN/A
11:50 AM41 °FPartly sunny.20 mph76%29.74 "HgN/A
11:20 AM41 °FPartly sunny.21 mph76%29.77 "HgN/A
10:50 AM39 °FScattered clouds.18 mph81%29.80 "HgN/A
10:20 AM39 °FScattered clouds.20 mph81%29.83 "HgN/A
9:50 AM39 °FScattered clouds.17 mph81%29.86 "HgN/A
9:20 AM39 °FScattered clouds.17 mph81%29.89 "HgN/A
8:50 AM39 °FPartly sunny.13 mph81%29.89 "HgN/A
8:20 AM39 °FPartly sunny.15 mph81%29.92 "HgN/A
7:50 AM39 °FPassing clouds.14 mph81%29.92 "HgN/A
7:20 AM39 °FPassing clouds.14 mph81%29.95 "HgN/A
6:50 AM37 °FPassing clouds.13 mph87%29.95 "HgN/A
6:20 AM39 °FPassing clouds.13 mph81%29.98 "HgN/A
5:50 AM37 °FPassing clouds.14 mph87%29.98 "HgN/A
5:20 AM37 °FPassing clouds.12 mph87%30.01 "HgN/A
10:50 PM
Jan 27
39 °FPassing clouds.6 mph87%30.15 "Hg6 mi
10:20 PM39 °FPassing clouds.7 mph87%30.15 "Hg6 mi
9:50 PM39 °FPassing clouds.6 mph87%30.15 "HgN/A
9:20 PM39 °FPassing clouds.6 mph87%30.15 "HgN/A
8:50 PM39 °FPartly cloudy.3 mph87%30.15 "HgN/A
8:20 PM39 °FPartly cloudy.6 mph87%30.15 "HgN/A
Weather by CustomWeather, © 2014

See weather overviewHow to use our weather pages